Location: ???????
(55.4362°N, 38.1183°E)
Time: 21:03:38
(UTC+00:00)

M-CUBED/EXP-1 PRIME - Pass Details

Date: 14 December 2021
Orbit: 426 x 650 km, 101.7° (Epoch: 26 January)

Event Time Altitude Azimuth Distance (km) Brightness Sun altitude
Rises 14:34:44 0° 143° (SE) 2,905 ? -12.6°
Reaches altitude 10° 14:36:54 10° 139° (SE) 2,023 ? -12.8°
Maximum altitude 14:41:14 57° 62° (ENE) 766 ? -13.4°
Drops below altitude 10° 14:45:42 10° 344° (NNW) 2,075 ? -14.0°
Sets 14:47:57 0° 341° (NNW) 2,988 ? -14.3°
